NOAA NWS Hourly Roundups by Site

Regional Weather Roundup for Green Bay, WI

To Select Another Site Choose from List

Select Site:  

000
ASUS43 KGRB 071311
RWRGRB

NORTH-CENTRAL AND NORTHEAST WISCONSIN REGIONAL WEATHER ROUNDUP
NATIONAL WEATHER SERVICE GREEN BAY WI
800 AM CDT FRI MAY 07 2021

WIZ005-009-010>012-018-019-071400-
NORTH CENTRAL WISCONSIN

CITY           SKY/WX    TMP DP  RH WIND       PRES   REMARKS
IRONWOOD       CLOUDY    36  32  85 N9G17     30.06R
MANITOWISH WTR CLOUDY    35  33  91 N8        30.02R
ARBOR VITAE    CLOUDY    39  30  70 N10       30.00S
EAGLE RIVER    CLOUDY    37  31  82 N10       30.00R
LAND O LAKES   CLOUDY    37  32  81 N10       30.01S
RHINELANDER    PTSUNNY   38  30  73 VRB7G17   30.00R
PHILLIPS       SUNNY     35  33  91 N9G17     30.04R
ANTIGO         CLOUDY    37  32  84 N14G25    29.98S
TOMAHAWK       MOSUNNY   36  32  85 NW10      30.02R
MERRILL        PTSUNNY   38  34  85 N10G16    30.00S
$$

WIZ013-073-071400-
NORTHEAST WISCONSIN

CITY           SKY/WX    TMP DP  RH WIND       PRES   REMARKS
IRON MOUNTAIN  CLOUDY    37  32  82 NE10      29.97R
MARINETTE      CLOUDY    41  36  82 N14G21    29.96S
OCONTO         PTSUNNY   42  36  79 NW9       29.96R
$$

WIZ017-030-035>037-045-071400-
CENTRAL WISCONSIN

CITY           SKY/WX    TMP DP  RH WIND       PRES   REMARKS
MEDFORD        SUNNY     36  33  89 N13       30.03R
WAUSAU         PTSUNNY   40  32  73 NW14G26   30.00R
MOSINEE        PTSUNNY   37  34  87 NW14G20   30.02R
MARSHFIELD     SUNNY     40  34  79 N17       30.03R
WISC RAPIDS    SUNNY     40  34  79 N13G22    30.04R
STEVENS POINT  MOSUNNY   38  32  78 N14       30.02R
WAUPACA        MOSUNNY   43  34  71 NW14      30.01R
SHAWANO        CLOUDY    42  36  78 NW13G18   29.99R
CLINTONVILLE   CLOUDY    40  34  79 NW12      30.00R
WAUTOMA        MOSUNNY   41  35  79 NW9         N/A
$$

WIZ038-039-048-051-071400-
FOX VALLEY

CITY           SKY/WX    TMP DP  RH WIND       PRES   REMARKS
NWS GREEN BAY  SUNNY     43  34  70 NW14G23   29.97R
APPLETON       PTSUNNY   41  28  60 NW12      29.97R
OSHKOSH        MOSUNNY   43  34  70 NW14G23   29.98R
FOND DU LAC    MOSUNNY   43  34  70 NW17      29.99R
$$

WIZ022-050-052-071400-
EAST CENTRAL WISCONSIN

CITY           SKY/WX    TMP DP  RH WIND       PRES   REMARKS
EPHRAIM        LGT RAIN  39  38  94 NW12      29.93R
WASHINGTON ISL DRIZZLE   37  37 100 NE9       29.94R
STURGEON BAY   CLOUDY    41  37  86 NW14      29.95R
MANITOWOC      PTSUNNY   43  39  86 NW16      29.96S
SHEBOYGAN      PTSUNNY   45  35  68 NW14G23   29.96R
$$

LMZ563-521-522-541>543-071400-
LAKESHORE

STATION/POSITION TIME  TEMP    WIND        PRES    VSBY  WAVE
                       AIR SEA DIR/SP/G                  HT/PER
                 (UTC) (F)     (DEG/KT/KT) (MB)    (MI)  (FT/S)
SHEBOYGAN LKSHOR 1300   43     310/ 15/ 19   N/A
KEWAUNEE LKSHORE 1230   43     310/  6/ 13 1012.7R
NORTHPORT PIER   1230   41      30/  4/  7 1014.6R
SISTER BAY LKSHO 1230   42     330/ 13/ 15   N/A
CHAMBERS ISLAND  1240   41     280/ 16/ 18   N/A
MENOMINEE LKSHOR 1230   40 52  300/ 10/ 15 1013.1R
$$


 

View Past Reports for Green Bay, WI.

Products Courtesy of NOAA-NWS
NWS Information Parsing Script by Ken True at Saratoga Weather - Script by SE Lincoln Weather.